Overview Statistics Trail Chart Weather Telemetry Raw packets
 

This is the latest recevied weather packets stored in our database for station/object KN6WGU. If no packets are shown the sender has not sent any weather packets the latest 10 day(s).

<< 81 82 83 84 85 86 87 >>
Time Temp. Humidity Pressure Rain* Wind** Luminosity Snow
1788020226 25° C 58% 1016.4 hPa 0 mm - 44 W/m² -
1788019921 25° C 60% 1016.5 hPa 0 mm - 47 W/m² -
1788019616 25° C 58% 1016.8 hPa 0 mm - 202 W/m² -
1788019315 24.44° C 58% 1016.8 hPa 0 mm - 44 W/m² -
1788019013 24.44° C 56% 1016.6 hPa 0 mm - 44 W/m² -
1788018709 23.89° C 55% 1016.6 hPa 0 mm - 86 W/m² -
1788018408 23.89° C 57% 1016.5 hPa 0 mm - 43 W/m² -
1788018103 23.89° C 57% 1016.6 hPa 0 mm - 58 W/m² -
1788017799 23.89° C 55% 1016.6 hPa 0 mm - 43 W/m² -
1788017495 23.89° C 58% 1016.5 hPa 0 mm - 43 W/m² -
1788017192 23.33° C 54% 1016.6 hPa 0 mm - 45 W/m² -
1788016893 23.33° C 58% 1016.8 hPa 0 mm - 43 W/m² -
1788016591 23.33° C 57% 1016.5 hPa 0 mm - 52 W/m² -
1788016286 22.78° C 57% 1016.6 hPa 0 mm - 47 W/m² -
1788015985 22.78° C 56% 1016.8 hPa 0 mm - 43 W/m² -
1788015680 22.78° C 56% 1016.7 hPa 0 mm - 41 W/m² -
1788015380 22.78° C 57% 1016.5 hPa 0 mm - 55 W/m² -
1788015074 22.78° C 61% 1016.5 hPa 0 mm - 51 W/m² -
1788014772 22.22° C 62% 1016.6 hPa 0 mm - 39 W/m² -
1788014468 22.22° C 60% 1016.6 hPa 0 mm - 39 W/m² -
1788014174 21.67° C 60% 1016.7 hPa 0 mm - 49 W/m² -
1788013863 21.67° C 61% 1016.8 hPa 0 mm - 38 W/m² -
1788013561 21.11° C 62% 1016.8 hPa 0 mm - 39 W/m² -
1788013256 21.11° C 61% 1016.7 hPa 0 mm - 42 W/m² -
1788012950 21.11° C 63% 1016.8 hPa 0 mm - 41 W/m² -

* Rain latest hour (hover to see other rain measurements)
** Current wind speed in m/s (hover to see current wind gust speed)